Back to catalog

STARLINK-3976

AliveCommunicationsVLEO
NORAD 52673·PAYLOAD·🇺🇸 United States

Launched May 18, 2022 from Cape Canaveral Space Force Station

Loading…

Next Passes (next 24 hours)

TLE

FreshSource: CelesTrak SupGP

Epoch: Sep 14, 2026, 21:36 UTC

1 52673C 22053T   26257.90048611 -.00009331  00000+0 -26699-3 0  2575
2 52673  53.1585  14.3673 0001210  81.9196 323.7802 15.35401102    12

Track STARLINK-3976 in real time with AllMySat

Download on the App Store